This is the latest recevied weather packets stored in our database for station/object KA1JKB. If no packets are shown the sender has not sent any weather packets the latest 10 day(s).
| Time | Temp. | Humidity | Pressure | Rain* | Wind** | Luminosity | Snow |
|---|---|---|---|---|---|---|---|
| 1787905219 | 13.33° C | 99% | 1016.7 hPa | 0 mm | - | 0 W/m² | - |
| 1787904917 | 12.78° C | 99% | 1016.5 hPa | 0 mm | - | 0 W/m² | - |
| 1787904615 | 12.78° C | 99% | 1016.6 hPa | 0 mm | - | 0 W/m² | - |
| 1787904313 | 13.33° C | 99% | 1016.4 hPa | 0 mm | - | 0 W/m² | - |
| 1787904009 | 13.33° C | 99% | 1016.5 hPa | 0 mm | - | 0 W/m² | - |
| 1787903704 | 13.89° C | 99% | 1016.3 hPa | 0 mm | - | 0 W/m² | - |
| 1787903400 | 13.89° C | 99% | 1016.2 hPa | 0 mm | - | 0 W/m² | - |
| 1787903095 | 13.33° C | 99% | 1016.3 hPa | 0 mm | - | 0 W/m² | - |
| 1787902793 | 12.78° C | 99% | 1016.4 hPa | 0 mm | - | 0 W/m² | - |
| 1787902488 | 12.78° C | 99% | 1016.4 hPa | 0 mm | - | 0 W/m² | - |
| 1787902183 | 12.78° C | 99% | 1016.2 hPa | 0 mm | - | 0 W/m² | - |
| 1787901878 | 12.78° C | 99% | 1016.5 hPa | 0 mm | - | 0 W/m² | - |
| 1787901574 | 12.78° C | 99% | 1016.1 hPa | 0 mm | - | 0 W/m² | - |
| 1787901270 | 12.78° C | 98% | 1016.2 hPa | 0 mm | - | 0 W/m² | - |
| 1787900965 | 12.78° C | 98% | 1016.1 hPa | 0 mm | - | 0 W/m² | - |
| 1787900660 | 12.78° C | 97% | 1016.2 hPa | 0 mm | - | 0 W/m² | - |
| 1787900359 | 12.78° C | 97% | 1016 hPa | 0 mm | - | 0 W/m² | - |
| 1787900054 | 12.78° C | 96% | 1016.2 hPa | 0 mm | - | 0 W/m² | - |
| 1787899749 | 12.78° C | 96% | 1016.1 hPa | 0 mm | - | 0 W/m² | - |
| 1787899446 | 12.78° C | 96% | 1016.1 hPa | 0 mm | - | 0 W/m² | - |
| 1787899145 | 12.78° C | 95% | 1016.1 hPa | 0 mm | - | 0 W/m² | - |
| 1787898840 | 13.33° C | 94% | 1016.1 hPa | 0 mm | - | 0 W/m² | - |
| 1787898535 | 13.89° C | 94% | 1016 hPa | 0 mm | - | 0 W/m² | - |
| 1787898234 | 14.44° C | 93% | 1016 hPa | 0 mm | - | 0 W/m² | - |
| 1787897929 | 14.44° C | 93% | 1016 hPa | 0 mm | - | 0 W/m² | - |
* Rain latest hour (hover to see other rain measurements)
** Current wind speed in m/s (hover to see current wind gust speed)